Location: Lugrin
(46.4033°N, 6.6674°E)
Time: 17:30:41
(UTC+00:00)

Terra - Pass Details

Date: 18 September 2020
Orbit: 701 x 703 km, 98.2° (Epoch: 30 October)

Event Time Altitude Azimuth Distance (km) Brightness Sun altitude
Exits shadow 21:57:48 19° 331° (NNW) 1,656 4.3 -38.3°
Drops below altitude 10° 21:59:11 10° 337° (NNW) 2,182 5.1 -38.4°
Sets 22:01:31 0° 342° (NNW) 3,105 6.0 -38.6°
